Weather History for Sedona, AZ

Change the Weather History Date:

Thursday, January 2, 2014

  Actual Average Record
Temperature  
Mean Temperature 53 °F -  
Max Temperature 62 °F 53 °F 68 °F (2012)
Min Temperature 44 °F 27 °F 22 °F (2011)
Degree Days  
Heating Degree Days 12    
Growing Degree Days 3 (Base 50)    
Moisture  
Dew Point 11 °F    
Average Humidity 21    
Maximum Humidity 37    
Minimum Humidity 14    
Precipitation  
Precipitation 0.08 in - - ()
Sea Level Pressure  
Sea Level Pressure 30.24 in    
Wind  
Wind Speed 9 mph (ENE)    
Max Wind Speed 14 mph    
Max Gust Speed 17 mph    
Visibility 10 miles    
Events      
Averages and records for this station are not official NWS values.
T = Trace of Precipitation, MM = Missing Value Source: NWS Daily Summary

Daily Weather History Graph

Daily Weather History Graph

Search for Another Location

Airport:

Trip Planner

Search our weather history database for the weather conditions in past years. The results will help you decide how hot, cold, wet, or windy it might be!

Date:

Astronomy

Jan. 02, 2014 Rise Set
Actual Time 7:34 AM MST 5:27 PM MST
Civil Twilight 7:07 AM MST 5:55 PM MST
Nautical Twilight 6:35 AM MST 6:27 PM MST
Astronomical Twilight 6:04 AM MST 6:57 PM MST
Moon 8:23 AM MST (1/2) 7:23 PM MST (1/2)
Length of Visible Light 10h 48m
Length of Day
9h 52m
Waxing Crescent, 3% of the Moon is Illuminated
Jan 2
Waxing Crescent
Jan 7
First Quarter
Jan 15
Full
Jan 23
Last Quarter
Jan 30
New

Hourly Weather History & Observations

Time (MST) Temp. Windchill Dew Point Humidity Pressure Visibility Wind Dir Wind Speed Gust Speed Precip Events Conditions
12:15 AM 48.2 °F - 10.4 °F 22% 30.27 in 10.0 mi ENE 11.5 mph - N/A   Clear
12:35 AM 48.2 °F - 10.4 °F 22% 30.27 in 10.0 mi ENE 10.4 mph - N/A   Clear
12:55 AM 46.4 °F 41.1 °F 10.4 °F 23% 30.27 in 10.0 mi ENE 11.5 mph 17.3 mph N/A   Clear
1:15 AM 46.4 °F 42.4 °F 10.4 °F 23% 30.27 in 10.0 mi ENE 8.1 mph 17.3 mph N/A   Clear
1:35 AM 46.4 °F 41.1 °F 6.8 °F 20% 30.27 in 10.0 mi ENE 11.5 mph 17.3 mph N/A   Clear
1:55 AM 48.2 °F - 5.0 °F 17% 30.28 in 10.0 mi NE 13.8 mph - N/A   Clear
2:15 AM 48.2 °F - 3.2 °F 16% 30.28 in 10.0 mi ENE 10.4 mph - N/A   Clear
2:35 AM 46.4 °F 41.5 °F 5.0 °F 18% 30.28 in 10.0 mi ENE 10.4 mph 17.3 mph N/A   Clear
2:55 AM 46.4 °F 41.5 °F 3.2 °F 17% 30.28 in 10.0 mi ENE 10.4 mph - N/A   Clear
3:15 AM 46.4 °F 41.9 °F 3.2 °F 17% 30.28 in 10.0 mi NE 9.2 mph - N/A   Clear
3:35 AM 46.4 °F 41.5 °F 3.2 °F 17% 30.27 in 10.0 mi ENE 10.4 mph - N/A   Clear
3:55 AM 46.4 °F 40.7 °F 3.2 °F 17% 30.27 in 10.0 mi ENE 12.7 mph 17.3 mph N/A   Clear
4:15 AM 46.4 °F 41.5 °F 3.2 °F 17% 30.27 in 10.0 mi ENE 10.4 mph - N/A   Clear
4:35 AM 46.4 °F 40.7 °F 3.2 °F 17% 30.27 in 10.0 mi NE 12.7 mph - N/A   Clear
4:55 AM 46.4 °F 41.1 °F 3.2 °F 17% 30.27 in 10.0 mi ENE 11.5 mph - N/A   Clear
5:15 AM 46.4 °F 40.7 °F 3.2 °F 17% 30.27 in 10.0 mi ENE 12.7 mph - N/A   Clear
5:35 AM 46.4 °F 41.1 °F 3.2 °F 17% 30.28 in 10.0 mi ENE 11.5 mph - N/A   Clear
5:55 AM 46.4 °F 41.1 °F 3.2 °F 17% 30.28 in 10.0 mi ENE 11.5 mph 16.1 mph N/A   Clear
6:15 AM 46.4 °F 40.4 °F 3.2 °F 17% 30.29 in 10.0 mi ENE 13.8 mph - N/A   Clear
6:35 AM 44.6 °F 38.1 °F 3.2 °F 18% 30.28 in 10.0 mi ENE 13.8 mph - N/A   Clear
6:55 AM 44.6 °F 38.1 °F 3.2 °F 18% 30.28 in 10.0 mi ENE 13.8 mph - N/A   Clear
7:15 AM 44.6 °F 38.1 °F 3.2 °F 18% 30.28 in 10.0 mi ENE 13.8 mph - N/A   Clear
7:35 AM 44.6 °F 38.1 °F 3.2 °F 18% 30.28 in 10.0 mi ENE 13.8 mph - N/A   Clear
7:55 AM 44.6 °F 38.1 °F 3.2 °F 18% 30.28 in 10.0 mi ENE 13.8 mph - N/A   Clear
8:15 AM 46.4 °F 41.5 °F 3.2 °F 17% 30.29 in - ENE 10.4 mph - N/A   Clear
8:55 AM 50.0 °F - 5.0 °F 16% 30.30 in 10.0 mi East 8.1 mph - 0.08 in   Clear
9:15 AM 50.0 °F - 8.6 °F 19% 30.30 in 10.0 mi East 8.1 mph - N/A   Clear
9:35 AM 51.8 °F - 8.6 °F 18% 30.30 in 10.0 mi ESE 6.9 mph - N/A   Clear
9:55 AM 51.8 °F - 12.2 °F 21% 30.30 in 10.0 mi SE 4.6 mph - N/A   Clear
10:15 AM 51.8 °F - 12.2 °F 21% 30.30 in 10.0 mi Calm Calm - N/A   Clear
10:35 AM 53.6 °F - 12.2 °F 19% 30.30 in 10.0 mi Calm Calm - N/A   Clear
10:55 AM 55.4 °F - 14.0 °F 20% 30.30 in 10.0 mi SSE 4.6 mph - N/A   Clear
11:15 AM 55.4 °F - 14.0 °F 20% 30.29 in 10.0 mi SE 3.5 mph - N/A   Clear
11:35 AM 57.2 °F - 14.0 °F 18% 30.28 in 10.0 mi Calm Calm - N/A   Clear
11:55 AM 57.2 °F - 10.4 °F 16% 30.26 in 10.0 mi Calm Calm - N/A   Clear
12:15 PM 59.0 °F - 10.4 °F 15% 30.25 in 10.0 mi Calm Calm - N/A   Clear
12:35 PM 59.0 °F - 14.0 °F 17% 30.24 in 10.0 mi West 3.5 mph - N/A   Clear
12:55 PM 60.8 °F - 14.0 °F 16% 30.23 in 10.0 mi SW 3.5 mph - N/A   Clear
1:15 PM 60.8 °F - 14.0 °F 16% 30.22 in 10.0 mi SW 5.8 mph - N/A   Clear
1:35 PM 62.6 °F - 14.0 °F 15% 30.21 in 10.0 mi SSW 5.8 mph - N/A   Clear
1:55 PM 60.8 °F - 14.0 °F 16% 30.21 in 10.0 mi SSW 4.6 mph - N/A   Clear
2:15 PM 62.6 °F - 12.2 °F 14% 30.20 in 10.0 mi SSW 5.8 mph - N/A   Clear
2:35 PM 62.6 °F - 14.0 °F 15% 30.20 in 10.0 mi SSW 3.5 mph - N/A   Clear
2:55 PM 60.8 °F - 12.2 °F 15% 30.19 in 10.0 mi SSW 4.6 mph - N/A   Clear
3:15 PM 59.0 °F - 12.2 °F 16% 30.19 in 10.0 mi West 3.5 mph - N/A   Clear
3:35 PM 59.0 °F - 10.4 °F 15% 30.19 in 10.0 mi West 3.5 mph - N/A   Clear
3:55 PM 59.0 °F - 12.2 °F 16% 30.19 in 10.0 mi Calm Calm - N/A   Clear
4:15 PM 57.2 °F - 14.0 °F 18% 30.19 in 10.0 mi NW 4.6 mph - N/A   Clear
4:35 PM 55.4 °F - 10.4 °F 17% 30.19 in 10.0 mi Calm Calm - N/A   Clear
4:55 PM 55.4 °F - 10.4 °F 17% 30.19 in 10.0 mi Calm Calm - N/A   Clear
5:15 PM 55.4 °F - 14.0 °F 20% 30.19 in 10.0 mi Calm Calm - N/A   Clear
5:35 PM 53.6 °F - 12.2 °F 19% 30.19 in 10.0 mi ENE 4.6 mph - N/A   Clear
5:55 PM 53.6 °F - 12.2 °F 19% 30.19 in 10.0 mi ENE 5.8 mph - N/A   Clear
6:15 PM 53.6 °F - 14.0 °F 21% 30.19 in 10.0 mi NE 8.1 mph - N/A   Clear
6:35 PM 53.6 °F - 17.6 °F 24% 30.18 in 10.0 mi NE 10.4 mph - N/A   Clear
6:55 PM 51.8 °F - 17.6 °F 26% 30.18 in 10.0 mi NE 10.4 mph - N/A   Clear
7:15 PM 51.8 °F - 19.4 °F 28% 30.19 in 10.0 mi NE 12.7 mph - N/A   Clear
7:35 PM 51.8 °F - 19.4 °F 28% 30.18 in 10.0 mi NE 12.7 mph - N/A   Clear
7:55 PM 51.8 °F - 19.4 °F 28% 30.18 in 10.0 mi NE 10.4 mph - N/A   Clear
8:15 PM 50.0 °F - 19.4 °F 30% 30.19 in 10.0 mi NE 12.7 mph - N/A   Clear
8:35 PM 50.0 °F - 19.4 °F 30% 30.18 in 10.0 mi NE 11.5 mph - N/A   Clear
8:55 PM 50.0 °F - 19.4 °F 30% 30.19 in 10.0 mi NE 11.5 mph - N/A   Clear
9:15 PM 50.0 °F - 19.4 °F 30% 30.19 in 10.0 mi NE 10.4 mph - N/A   Clear
9:35 PM 50.0 °F - 19.4 °F 30% 30.18 in 10.0 mi NE 10.4 mph - N/A   Clear
9:55 PM 50.0 °F - 19.4 °F 30% 30.18 in 10.0 mi NE 11.5 mph - N/A   Clear
10:15 PM 48.2 °F - 19.4 °F 32% 30.18 in 10.0 mi NE 11.5 mph - N/A   Clear
10:35 PM 46.4 °F 41.1 °F 19.4 °F 34% 30.18 in 10.0 mi NE 11.5 mph - N/A   Clear
10:55 PM 48.2 °F - 19.4 °F 32% 30.18 in 10.0 mi NE 11.5 mph - N/A   Clear
11:15 PM 46.4 °F 41.1 °F 19.4 °F 34% 30.18 in 10.0 mi NE 11.5 mph - N/A   Clear
11:35 PM 46.4 °F 41.5 °F 19.4 °F 34% 30.18 in 10.0 mi NE 10.4 mph - N/A   Clear
11:55 PM 44.6 °F 38.4 °F 19.4 °F 37% 30.18 in 10.0 mi NE 12.7 mph - N/A   Clear